Regional Weather Roundup
Issued by NWS

Home | Current Version | Previous Version | Graphics & Text | Print | Product List | Glossary Off
Versions: 1 2 3 4 5 6 7 8 9 10 11 12 13 14 15 16 17 18 19 20 21 22 23 24 25 26 27 28 29 30 31 32 33 34 35 36 37 38 39 40 41 42 43 44 45 46 47 48 49 50

000
ASUS43 KMPX 060010
RWRMN
WEATHER ROUNDUP FOR MINNESOTA
NATIONAL WEATHER SERVICE TWIN CITIES/CHANHASSEN MN
600 PM CST THU MAR 05 2015


NOTE: "FAIR" INDICATES FEW OR NO CLOUDS BELOW 12,000 FEET WITH NO
SIGNIFICANT WEATHER AND/OR OBSTRUCTIONS TO VISIBILITY. N/A MEANS
CURRENT SKY AND/OR WEATHER CONDITIONS ARE NOT AVAILABLE.

MNZ060>063-068>070-060100-
   Twin Cities Metro

CITY           SKY/WX    TMP DP  RH WIND       PRES   REMARKS
TWIN CITIES    CLEAR     14   0  53 S8        30.41S WCI   3
6HR MIN TEMP:   8; 6HR MAX TEMP:  15;

ST PAUL        CLEAR     13   0  56 S9        30.42F WCI   1
CRYSTAL        CLEAR     15   0  51 S8        30.38F WCI   4
BLAINE         CLEAR     16   1  53 SW10      30.38F WCI   3
LAKEVILLE      CLEAR     10   1  67 SW3       30.40S
EDEN PRAIRIE   CLEAR     13   1  59 S9        30.39S WCI   1
6HR MIN TEMP:   8; 6HR MAX TEMP:  16;

SOUTH ST PAUL  CLEAR     15   0  53 S5        30.41S WCI   7
LAKE ELMO      FAIR      14   1  57 S10       30.40F WCI   1
$$
MNZ001>005-007-008-013>017-022>024-027-028-060100-
   Northwest Minnesota

CITY           SKY/WX    TMP DP  RH WIND       PRES   REMARKS
BEMIDJI        CLEAR     15  -3  44 SW12      30.17S WCI   1
HALLOCK        CLEAR     21  12  68 S21       30.06F WCI   6
ROSEAU         CLEAR     16   7  67 S15       30.08F WCI   1
WARROAD        CLEAR     16   3  57 S13G18    30.08F WCI   2
THIEF RVR FALL CLEAR     18   7  62 S17       30.13F WCI   2
CROOKSTON      CLEAR     21  10  63 SW22      30.15F WCI   5
FOSSTON        CLEAR     12   1  62 S20G25    30.17S WCI  -6
DETROIT LAKES  CLEAR     16   5  62 S12       30.21F WCI   3
MOORHEAD       CLEAR     21   9  58 S17G24    30.21S WCI   7
PARK RAPIDS    CLEAR     13  -3  49 S13       30.20F WCI  -2
MAHNOMEN       FAIR      15   4  64 S18       30.17F WCI  -2
$$
MNZ006-009>011-018-025>026-060100-
   North Central Minnesota

CITY           SKY/WX    TMP DP  RH WIND       PRES   REMARKS
BAUDETTE       CLEAR     16  -1  47 SW14G21   30.09F WCI   2
FLAG ISLAND    CLEAR     12   1  62 S14       30.06S WCI  -3
INTL FALLS     CLEAR     15  -6  39 SW10      30.13F WCI   2
6HR MIN TEMP:   8; 6HR MAX TEMP:  17;

WASKISH        CLEAR     18  -2  41 CALM      30.14F
BIG FORK       CLEAR     12  -4  48 SW12      30.18S WCI  -2
LONGVILLE      CLEAR     12  -6  44 S7        30.23S WCI   2
GRAND RAPIDS   CLEAR     12  -6  44 S9        30.21S WCI   0
CRANE LAKE     CLEAR     12 -11  34 S5        30.18F WCI   4
ORR            CLEAR     12 -11  34 S7        30.15S WCI   2
COOK           CLEAR     12  -8  40 S9        30.18S WCI   0
WALKER         FAIR      13  -5  45 S8G16     30.20S WCI   1
$$
MNZ012-019>021-037-060100-
   Northeast Minnesota

CITY           SKY/WX    TMP DP  RH WIND       PRES   REMARKS
DULUTH         CLEAR     12  -7  42 SW13      30.23F WCI  -3
6HR MIN TEMP:   6; 6HR MAX TEMP:  14;

ELY            CLEAR     10  -9  40 SW7       30.17F WCI   0
HIBBING        CLEAR     12  -7  42 S7        30.20F WCI   1
EVELETH        CLEAR     12  -4  48 SW12G17   30.21F WCI  -2
DULUTH HARBOR  CLEAR     14  -4  44 SW17      30.33S WCI  -3
TWO HARBORS    CLEAR     16  -2  45 SW10      30.24S WCI   3
SILVER BAY     CLEAR     14  -9  34 S7        30.23R WCI   4
GRAND MARAIS     N/A     20  11  68 SW29G37   30.23F WCI   1
G MARAIS ARPRT CLEAR      9 -13  37 SW6       30.14S WCI  -1
$$
MNZ029>031-032-039>041-046>048-054>057-064-060100-
   West Central Minnesota

CITY           SKY/WX    TMP DP  RH WIND       PRES   REMARKS
FERGUS FALLS   FAIR      16   3  57 S10       30.28S WCI   3
WHEATON        CLEAR     16   9  73 SE10      30.27S WCI   3
MORRIS         CLEAR     18   9  68 S12       30.26F WCI   5
ALEXANDRIA     CLEAR     14   2  58 S10       30.25F WCI   1
ELBOW LAKE     FAIR      15   6  68 S13       30.25S WCI   1
WADENA         CLEAR     10   0  61 S7        30.24S WCI   0
GLENWOOD       CLEAR     16   3  57 S10       30.27F WCI   3
APPLETON       CLEAR     21   9  58 S7        30.29F WCI  13
BENSON         CLEAR     19   7  58 SW9       30.29F WCI   9
ORTONVILLE     CLEAR     19   9  63 S9        30.25F WCI   9
MADISON        CLEAR     21  10  63 S10       30.28F WCI  10
WILLMAR        FAIR      19   7  58 CALM      30.32F
$$
MNZ033>034-036-042>043-049>051-058-059-060100-
   Central Minnesota

CITY           SKY/WX    TMP DP  RH WIND       PRES   REMARKS
ST CLOUD       CLEAR     11   0  61 S8        30.34F WCI  -1
6HR MIN TEMP:   6; 6HR MAX TEMP:  13;

SAUK CENTRE    FAIR      14   4  65 S10       30.28F WCI   1
PAYNESVILLE    CLEAR     13   2  61 SE9       30.32F WCI   1
AITKIN         CLEAR     12  -4  48 S9        30.26F WCI   0
PINE RIVER     CLEAR     12  -2  52 S8        30.28S WCI   1
BRAINERD       CLEAR     10  -2  58 S12       30.28S WCI  -5
STAPLES        CLEAR     10   0  61 S8        30.25F WCI  -1
LONG PRAIRIE   FAIR      12   3  67 S10       30.27F WCI  -1
LITTLE FALLS   CLEAR     14   1  57 S7        30.31F WCI   4
LITCHFIELD     CLEAR     16   5  62 CALM      30.34F
BUFFALO        CLEAR     14   2  59 S5        30.38F WCI   6
MAPLE LAKE     CLEAR     14   4  65 S3        30.37S
$$
MNZ037-044-045-052-053-060100-
   East Central Minnesota

CITY           SKY/WX    TMP DP  RH WIND       PRES   REMARKS
PRINCETON      CLEAR     12   0  57 S6        30.36S WCI   3
MORA           CLEAR     12  -2  52 S10       30.37R WCI  -1
CAMBRIDGE      CLEAR     12   0  57 S6        30.36S WCI   3
RUSH CITY      CLEAR     11  -4  52 SW7       30.37F WCI   0
MOOSE LAKE     CLEAR     12  -4  48 S7        30.29S WCI   2
HINCKLEY       FAIR      12  -2  52 S8        30.34S WCI   1
CLOQUET        CLEAR     10  -8  44 S10       30.26S WCI  -3
MCGREGOR       CLEAR     10  -2  56 S10       30.28F WCI  -3
$$
MNZ071>073-080-081-089-090-097-098-060100-
   Southwest Minnesota

CITY           SKY/WX    TMP DP  RH WIND       PRES   REMARKS
MONTEVIDEO     CLEAR     21   9  58 SW8       30.31F WCI  12
GRANITE FALLS  CLEAR     19   9  65 S10       30.33F WCI   8
CANBY          CLEAR     22   9  58 SE8       30.28F WCI  13
MARSHALL       CLEAR     21   7  53 S9        30.31F WCI  11
REDWOOD FALLS  CLEAR     19   6  57 S8        30.34F WCI   9
OLIVIA         CLEAR     19   9  63 S8        30.33S WCI   9
PIPESTONE      CLEAR     21  10  63 S9        30.25F WCI  11
WINDOM         CLEAR     21   7  53 S7        30.32F WCI  13
WORTHINGTON    CLEAR     21   5  49 S12       30.32F WCI   9
JACKSON        CLEAR     21   5  49 S13       30.34F WCI   9
TRACY          CLEAR     22   8  54 S8        30.30F WCI  13
SLAYTON        CLEAR     21   6  53 S9        30.28F WCI  10
$$
MNZ065>067-074>077-082>085-091>093-060100-
   South Central Minnesota

CITY           SKY/WX    TMP DP  RH WIND       PRES   REMARKS
MANKATO        CLEAR     16   1  53 S8        30.39S WCI   5
NEW ULM        CLEAR     18   5  57 S7        30.36F WCI   8
ST JAMES       CLEAR     19   7  58 S9        30.38S WCI   9
FAIRMONT       CLEAR     18   3  53 S9        30.36F WCI   6
GLENCOE        CLEAR     17   8  67 S3        30.36S
FARIBAULT      CLEAR     12   1  62 S3        30.40F
OWATONNA       CLEAR     12   3  67 S8        30.39F WCI   1
WASECA         CLEAR     18   5  57 S9        30.40F WCI   6
ALBERT LEA     CLEAR     12   3  67 S8        30.40S WCI   1
$$
MNZ078>079-086>088-094>096-060100-
   Southeast Minnesota

CITY           SKY/WX    TMP DP  RH WIND       PRES   REMARKS
ROCHESTER      CLEAR      5  -3  69 S9        30.41F WCI  -9
6HR MIN TEMP:   3; 6HR MAX TEMP:   9;

RED WING       CLEAR     12   0  57 SW5       30.43F WCI   4
STANTON        CLEAR     14   3  61 S7        30.40S WCI   4
DODGE CENTER   CLEAR      7   1  78 S7        30.39F WCI  -5
WINONA         CLEAR     12   0  57 CALM      30.49S
AUSTIN         CLEAR      9   0  66 S6        30.41F WCI  -1
PRESTON        CLEAR      6  -3  66 SW7       30.43S WCI  -6
$$
ABBREVIATIONS USED IN REMARKS
   TC - TEMPERATURES IN CELSIUS
  WCI - WIND CHILL INDEX
   HX - HEAT INDEX
  VSB - VISIBILITY
$$



USA.gov is the U.S. government's official web portal to all federal, state and local government web resources and services.